Weather History for KMKN - April, 2014

Change the Weather History Date:

Tuesday, April 1, 2014

  Actual Average (KSEP) Record (KSEP)
Temperature  
Mean Temperature 72 °F -  
Max Temperature 84 °F 73 °F 96 °F (1974)
Min Temperature 60 °F 47 °F 32 °F (1924)
Cooling Degree Days 7    
Growing Degree Days 22 (Base 50)    
Moisture  
Dew Point 59 °F    
Average Humidity 64    
Maximum Humidity 97    
Minimum Humidity 35    
Precipitation  
Precipitation 0.00 in - - ()
Sea Level Pressure  
Sea Level Pressure 29.89 in    
Wind  
Wind Speed 12 mph (SSE)    
Max Wind Speed 20 mph    
Max Gust Speed 25 mph    
Visibility 10 miles    
Events      
Averages and records for this station are not official NWS values.
T = Trace of Precipitation, MM = Missing Value Source: NWS Daily Summary

Daily Weather History Graph

Daily Weather History Graph

Search for Another Location

Airport or City:

Trip Planner

Search our weather history database for the weather conditions in past years. The results will help you decide how hot, cold, wet, or windy it might be!

Date:

Astronomy

Apr. 01, 2014 Rise Set
Actual Time 7:22 AM CDT 7:54 PM CDT
Civil Twilight 6:58 AM CDT 8:18 PM CDT
Nautical Twilight 6:29 AM CDT 8:47 PM CDT
Astronomical Twilight 6:00 AM CDT 9:16 PM CDT
Moon 8:33 AM CDT (4/1) 10:09 PM CDT (4/1)
Length of Visible Light 13h 20m
Length of Day
12h 31m
Waxing Crescent, 5% of the Moon is Illuminated
Apr 1
Waxing Crescent
Apr 7
First Quarter
Apr 15
Full
Apr 22
Last Quarter
Apr 29
New

Hourly Weather History & Observations

Time (CDT) Temp. Heat Index Dew Point Humidity Pressure Visibility Wind Dir Wind Speed Gust Speed Precip Events Conditions
12:15 AM 67.8 °F - 55.6 °F 65% 29.90 in 10.0 mi SSE 9.2 mph - N/A   Clear
12:35 AM 67.5 °F - 55.8 °F 66% 29.90 in 10.0 mi SSE 8.1 mph - N/A   Clear
12:55 AM 66.7 °F - 55.9 °F 68% 29.90 in 10.0 mi SSE 10.4 mph - N/A   Clear
1:15 AM 65.7 °F - 55.9 °F 71% 29.90 in 10.0 mi SSE 9.2 mph - N/A   Clear
1:35 AM 65.5 °F - 56.3 °F 72% 29.90 in 10.0 mi SSE 9.2 mph - N/A   Clear
1:55 AM 65.5 °F - 57.0 °F 74% 29.90 in 10.0 mi SSE 8.1 mph - N/A   Clear
2:15 AM 66.9 °F - 58.5 °F 74% 29.89 in 10.0 mi South 13.8 mph 17.3 mph N/A   Clear
2:35 AM 67.1 °F - 59.0 °F 75% 29.89 in 10.0 mi South 18.4 mph 21.9 mph N/A   Clear
2:55 AM 66.2 °F - 59.4 °F 79% 29.89 in 10.0 mi SSW 18.4 mph - N/A   Clear
3:15 AM 65.7 °F - 59.4 °F 80% 29.89 in 10.0 mi SSW 17.3 mph - N/A   Clear
3:35 AM 65.5 °F - 59.5 °F 81% 29.89 in 10.0 mi SSW 17.3 mph - N/A   Clear
3:55 AM 65.3 °F - 59.9 °F 83% 29.89 in 10.0 mi SSW 19.6 mph 25.3 mph N/A   Clear
4:15 AM 64.9 °F - 59.7 °F 83% 29.89 in 10.0 mi SSW 15.0 mph - N/A   Clear
4:35 AM 64.6 °F - 59.9 °F 85% 29.89 in 10.0 mi SSW 16.1 mph - N/A   Clear
4:55 AM 64.4 °F - 59.9 °F 85% 29.89 in 10.0 mi South 10.4 mph - N/A   Clear
5:15 AM 63.0 °F - 59.5 °F 89% 29.90 in 10.0 mi SE 5.8 mph - N/A   Clear
5:35 AM 62.6 °F - 60.1 °F 91% 29.90 in 10.0 mi South 8.1 mph - N/A   Clear
5:55 AM 61.7 °F - 59.9 °F 94% 29.91 in 10.0 mi SSE 6.9 mph - N/A   Clear
6:15 AM 60.8 °F - 59.5 °F 96% 29.91 in 10.0 mi SE 6.9 mph - N/A   Scattered Clouds
6:35 AM 61.3 °F - 60.4 °F 97% 29.92 in 10.0 mi SE 6.9 mph - N/A   Overcast
6:55 AM 62.8 °F - 61.7 °F 96% 29.92 in 10.0 mi SSE 10.4 mph - N/A   Overcast
7:15 AM 63.0 °F - 61.7 °F 96% 29.92 in 7.0 mi South 10.4 mph - N/A   Overcast
7:35 AM 63.5 °F - 61.7 °F 94% 29.94 in 7.0 mi SSE 6.9 mph - N/A   Overcast
7:55 AM 63.9 °F - 61.3 °F 91% 29.95 in 10.0 mi SE 5.8 mph - N/A   Overcast
8:15 AM 64.4 °F - 61.3 °F 90% 29.95 in 10.0 mi South 8.1 mph - N/A   Overcast
8:35 AM 65.3 °F - 60.8 °F 85% 29.96 in 10.0 mi South 9.2 mph - N/A   Overcast
8:55 AM 65.8 °F - 60.1 °F 82% 29.97 in 10.0 mi South 12.7 mph - N/A   Overcast
9:15 AM 66.6 °F - 59.9 °F 79% 29.97 in 10.0 mi South 12.7 mph - N/A   Overcast
9:35 AM 68.2 °F - 60.1 °F 75% 29.97 in 10.0 mi South 13.8 mph - N/A   Overcast
9:55 AM 68.5 °F - 59.9 °F 74% 29.97 in 10.0 mi South 10.4 mph - N/A   Overcast
10:15 AM 70.5 °F - 60.1 °F 69% 29.97 in 10.0 mi South 15.0 mph 20.7 mph N/A   Mostly Cloudy
10:35 AM 70.7 °F - 59.7 °F 68% 29.98 in 10.0 mi SSW 13.8 mph 17.3 mph N/A   Mostly Cloudy
10:55 AM 73.0 °F - 59.7 °F 63% 29.98 in 10.0 mi South 15.0 mph - N/A   Scattered Clouds
11:15 AM 73.8 °F - 60.1 °F 62% 29.98 in 10.0 mi SSE 13.8 mph 17.3 mph N/A   Mostly Cloudy
11:35 AM 74.7 °F - 60.1 °F 60% 29.98 in 10.0 mi South 11.5 mph - N/A   Scattered Clouds
11:55 AM 75.4 °F - 59.5 °F 58% 29.97 in 10.0 mi SSE 9.2 mph 18.4 mph N/A   Clear
12:15 PM 76.1 °F - 59.5 °F 56% 29.96 in 10.0 mi South 12.7 mph 18.4 mph N/A   Clear
12:35 PM 76.6 °F - 59.5 °F 55% 29.96 in 10.0 mi South 11.5 mph 18.4 mph N/A   Clear
12:55 PM 78.1 °F - 59.4 °F 52% 29.95 in 10.0 mi South 11.5 mph 18.4 mph N/A   Clear
1:15 PM 78.1 °F - 59.4 °F 52% 29.95 in 10.0 mi South 12.7 mph 17.3 mph N/A   Clear
1:35 PM 79.9 °F - 59.5 °F 50% 29.94 in 10.0 mi South 12.7 mph 19.6 mph N/A   Clear
1:55 PM 80.6 °F 81.2 °F 59.5 °F 49% 29.93 in 10.0 mi South 13.8 mph 19.6 mph N/A   Clear
2:15 PM 80.6 °F 81.1 °F 59.0 °F 48% 29.92 in 10.0 mi South 11.5 mph - N/A   Clear
2:35 PM 81.1 °F 81.5 °F 59.0 °F 47% 29.91 in 10.0 mi South 11.5 mph 18.4 mph N/A   Clear
2:55 PM 81.9 °F 81.9 °F 58.6 °F 45% 29.90 in 10.0 mi SSE 13.8 mph 20.7 mph N/A   Clear
3:15 PM 81.1 °F 81.5 °F 59.2 °F 47% 29.89 in 10.0 mi South 15.0 mph 20.7 mph N/A   Clear
3:35 PM 81.9 °F 81.7 °F 57.0 °F 43% 29.87 in 10.0 mi SE 16.1 mph 23.0 mph N/A   Clear
3:55 PM 82.6 °F 82.2 °F 57.6 °F 42% 29.85 in 10.0 mi SE 15.0 mph 24.2 mph N/A   Clear
4:15 PM 82.9 °F 82.1 °F 55.4 °F 39% 29.85 in 10.0 mi South 13.8 mph 21.9 mph N/A   Clear
4:35 PM 82.8 °F 81.9 °F 54.9 °F 38% 29.84 in 10.0 mi South 13.8 mph 23.0 mph N/A   Clear
4:55 PM 83.7 °F 82.5 °F 54.5 °F 37% 29.83 in 10.0 mi South 13.8 mph 19.6 mph N/A   Clear
5:15 PM 84.0 °F 82.7 °F 54.5 °F 36% 29.83 in 10.0 mi South 15.0 mph 24.2 mph N/A   Clear
5:35 PM 83.7 °F 82.4 °F 53.8 °F 36% 29.82 in 10.0 mi South 12.7 mph 23.0 mph N/A   Clear
5:55 PM 84.0 °F 82.6 °F 53.8 °F 35% 29.82 in 10.0 mi SSE 17.3 mph 25.3 mph N/A   Clear
6:15 PM 83.5 °F 82.5 °F 55.4 °F 38% 29.82 in 10.0 mi South 15.0 mph 21.9 mph N/A   Clear
6:35 PM 83.3 °F 82.5 °F 55.9 °F 39% 29.81 in 10.0 mi South 11.5 mph 18.4 mph N/A   Clear
6:55 PM 82.4 °F 81.9 °F 56.3 °F 41% 29.81 in 10.0 mi SSE 15.0 mph 25.3 mph N/A   Clear
7:15 PM 81.5 °F 81.4 °F 57.2 °F 43% 29.81 in 10.0 mi SSE 12.7 mph - N/A   Clear
7:35 PM 80.6 °F 80.8 °F 57.4 °F 45% 29.81 in 10.0 mi SSE 17.3 mph 21.9 mph N/A   Clear
7:55 PM 79.9 °F - 57.7 °F 47% 29.80 in 10.0 mi SSE 16.1 mph 21.9 mph N/A   Clear
8:15 PM 78.8 °F - 58.3 °F 49% 29.80 in 10.0 mi SSE 16.1 mph - N/A   Clear
8:35 PM 77.9 °F - 59.0 °F 52% 29.80 in 10.0 mi SSE 16.1 mph 20.7 mph N/A   Clear
8:55 PM 77.2 °F - 59.4 °F 54% 29.80 in 10.0 mi SSE 15.0 mph - N/A   Clear
9:15 PM 76.3 °F - 60.1 °F 57% 29.81 in 10.0 mi SSE 15.0 mph 19.6 mph N/A   Clear
9:35 PM 76.1 °F - 60.1 °F 57% 29.82 in 10.0 mi SSE 16.1 mph - N/A   Clear
9:55 PM 75.4 °F - 60.6 °F 60% 29.82 in 10.0 mi SSE 19.6 mph 24.2 mph N/A   Clear
10:15 PM 75.2 °F - 61.0 °F 61% 29.82 in 10.0 mi SSE 16.1 mph 21.9 mph N/A   Clear
10:35 PM 74.3 °F - 61.0 °F 63% 29.83 in 10.0 mi SSE 12.7 mph 18.4 mph N/A   Clear
10:55 PM 73.8 °F - 61.2 °F 65% 29.84 in 10.0 mi SSE 13.8 mph 21.9 mph N/A   Clear
11:15 PM 73.4 °F - 61.5 °F 66% 29.85 in 10.0 mi SSE 12.7 mph 18.4 mph N/A   Clear
11:35 PM 72.7 °F - 61.7 °F 68% 29.85 in 10.0 mi SSE 11.5 mph 20.7 mph N/A   Clear
11:55 PM 72.1 °F - 61.7 °F 70% 29.85 in 10.0 mi SSE 15.0 mph 18.4 mph N/A   Clear